Location: Unspecified
(0.0000°N, 0.0000°E)
Time: 16:32:56
(UTC+01:00)

Amateur Radio Satellites - All Passes

Search period start: 16 January 2018 16:02
Search period end: 17 January 2018 16:02
Location: Unspecified, 0.0000°N, 0.0000°E

Satellite Date Start Highest point End Downlink Frequencies (MHz)
Time Altitude Azimuth
BEESAT 16 Jan 16:29:28 16:34:08 57° 282° (WNW) 16:38:50 436.000
ITAMSAT 1 16 Jan 16:32:12 16:37:24 89° 256° (WSW) 16:42:34 435.822/435.867
CUBESAT XI-V 16 Jan 16:56:45 17:01:18 71° 282° (WNW) 17:05:52 437.345
DOVE 4 16 Jan 17:08:27 17:13:05 46° 79° (E) 17:17:26 437.250
NO-84 16 Jan 17:14:52 17:18:30 74° 302° (WNW) 17:21:48 435.350 FM
M-CUBED/EXP-1 PRIME 16 Jan 17:19:04 17:23:44 87° 258° (WSW) 17:28:18 437.505
ITUPSAT 1 16 Jan 17:26:53 17:28:20 11° 283° (WNW) 17:29:47 437.325
SO-50 16 Jan 17:27:39 17:31:52 31° 68° (ENE) 17:36:07 436.795
AO-7 16 Jan 17:34:01 17:39:53 21° 253° (WSW) 17:45:46 .
KKS-1 16 Jan 17:38:51 17:42:56 36° 102° (ESE) 17:47:03 437.445
JUGNU 16 Jan 17:41:38 17:45:39 18° 15° (NNE) 17:49:40 437.505
XW-2F 16 Jan 17:59:01 18:01:05 14° 79° (ENE) 18:03:07 145.980 - 146.000
XW-2D 16 Jan 18:03:17 18:06:05 19° 79° (ENE) 18:08:53 145.860 - 145.880
KAITUO 1B 16 Jan 18:06:57 18:08:42 13° 79° (ENE) 18:10:26 145.475/437.950
STARS 16 Jan 18:10:14 18:14:03 29° 102° (ESE) 18:17:54 437.465
XW-2B 16 Jan 18:19:58 18:23:27 33° 79° (E) 18:26:56 145.730 - 145.750
NUDT-PHONESAT 16 Jan 18:26:24 18:29:28 24° 79° (E) 18:32:32 437.300
LilacSat-2 16 Jan 18:40:29 18:44:22 89° 72° (ENE) 18:48:14 437.200
XW-2C 16 Jan 18:49:33 18:53:23 72° 258° (WSW) 18:57:12 145.795 - 145.815
SEEDS 16 Jan 19:01:10 19:03:11 13° 78° (ENE) 19:05:11 437.485
CUTE 1.7 + AOD 2 16 Jan 19:01:40 19:05:18 27° 79° (ENE) 19:08:56 437.475
CUTE-I 16 Jan 19:07:05 19:12:26 76° 257° (WSW) 19:17:45 437.470
SO-50 16 Jan 19:09:37 19:12:06 14° 247° (WSW) 19:14:37 436.795
HO-68 16 Jan 19:11:45 19:18:37 49° 76° (ENE) 19:25:26 435.675
STRAND 1 16 Jan 19:25:55 19:30:04 25° 103° (ESE) 19:34:13 437.568
JUGNU 16 Jan 19:29:24 19:35:03 43° 20° (NNE) 19:40:43 437.505
XW-2F 16 Jan 19:32:21 19:34:53 17° 259° (WSW) 19:37:26 145.980 - 146.000
nSIGHT-1 16 Jan 19:33:35 19:34:38 11° 126° (SE) 19:35:41 .
XW-2D 16 Jan 19:38:18 19:39:57 12° 258° (WSW) 19:41:37 145.860 - 145.880
RS-15 16 Jan 19:38:54 19:49:02 40° 68° (ENE) 19:58:52 29.354- 29.394
KAITUO 1B 16 Jan 19:39:44 19:42:23 18° 259° (WSW) 19:45:02 145.475/437.950
SRMSAT 16 Jan 19:40:52 19:43:28 13° 10° (N) 19:46:04 437.500
STARS 16 Jan 19:48:30 19:50:06 12° 282° (WNW) 19:51:44 437.465
CUBEBUG 2 16 Jan 19:55:20 19:59:30 89° 266° (W) 20:03:43 437.445
XW-2A 16 Jan 20:07:33 20:10:34 30° 79° (E) 20:13:35 145.665 - 145.685
UWE-3 16 Jan 20:11:32 20:15:43 71° 79° (ENE) 20:19:58 435.000/436.395/437.385
AAUSAT CUBESAT 2 16 Jan 20:32:01 20:36:13 82° 260° (W) 20:40:22 437.432
SEEDS 16 Jan 20:35:10 20:38:34 24° 258° (WSW) 20:41:59 437.485
CUTE 1.7 + AOD 2 16 Jan 20:39:21 20:40:51 12° 258° (WSW) 20:42:20 437.475
FO-29 16 Jan 20:46:13 20:51:26 72° 102° (ESE) 20:57:07 435.910
ZACube-1 16 Jan 20:46:49 20:51:03 84° 260° (W) 20:55:23 437.345
AO-73 16 Jan 20:56:51 21:01:04 71° 259° (W) 21:05:23 145.935
ISS 16 Jan 20:59:57 21:03:06 49° 305° (NW) 21:06:15 437.550
HO-68 16 Jan 21:01:29 21:05:59 18° 255° (WSW) 21:10:30 435.675
STRAND 1 16 Jan 21:05:19 21:08:58 20° 283° (WNW) 21:12:38 437.568
nSIGHT-1 16 Jan 21:08:15 21:10:36 19° 306° (NW) 21:12:56 .
JUGNU 16 Jan 21:18:10 21:24:08 70° 201° (SSW) 21:30:07 437.505
SRMSAT 16 Jan 21:28:27 21:33:20 26° 17° (NNE) 21:38:14 437.500
Oscar 11 16 Jan 21:36:12 21:40:10 35° 258° (WSW) 21:44:07 .
BEESAT 3 16 Jan 21:46:11 21:49:30 29° 68° (ENE) 21:52:47 437.485
RS-15 16 Jan 21:51:24 22:00:53 34° 249° (WSW) 22:10:20 29.354- 29.394
DELFI C3 16 Jan 21:57:15 22:01:06 49° 79° (E) 22:04:54 145.870
PCSat 16 Jan 22:02:35 22:07:42 44° 71° (ENE) 22:12:49 145.827
Max Valier Satellite 16 Jan 22:05:58 22:09:25 37° 79° (E) 22:12:52 145.860
BEESAT 2 16 Jan 22:22:32 22:24:58 16° 68° (ENE) 22:27:22 435.950
TIGRISAT 16 Jan 22:36:20 22:41:00 70° 282° (WNW) 22:45:36 435.000
EO-88 16 Jan 22:36:44 22:40:24 72° 78° (ENE) 22:44:02 145.990 - 145.960
UNISAT 6 16 Jan 22:50:30 22:54:52 39° 282° (WNW) 22:59:12 437.425
PRISM 16 Jan 22:59:55 23:03:43 38° 102° (ESE) 23:07:32 437.425
ESTCUBE 1 16 Jan 23:07:12 23:08:02 10° 78° (ENE) 23:08:52 437.505/2401.250
JUGNU 16 Jan 23:08:21 23:13:20 27° 198° (SSW) 23:18:20 437.505
SRMSAT 16 Jan 23:16:47 23:22:43 67° 21° (NNE) 23:28:38 437.500
EO-79 16 Jan 23:42:24 23:43:43 11° 102° (ESE) 23:45:03 145.935-145.965
PCSat 16 Jan 23:49:04 23:50:50 12° 250° (WSW) 23:52:37 145.827
BEESAT 2 16 Jan 23:59:55 00:02:24 16° 248° (WSW) 00:04:52 435.950
YUBILEINY 17 Jan 00:07:56 00:16:48 84° 93° (E) 00:25:39 435.215
LO-87 17 Jan 00:12:17 00:15:40 45° 259° (W) 00:19:03 145.935 - 145.965
AO-85 17 Jan 00:13:21 00:18:34 58° 68° (ENE) 00:23:51 145.980
POLYITAN 1 17 Jan 00:13:26 00:17:17 33° 102° (ESE) 00:21:08 437.675
AIST 2D 17 Jan 00:27:19 00:29:57 20° 281° (W) 00:32:35 435.315
NANOSAT C BR1 17 Jan 00:33:32 00:37:43 57° 102° (ESE) 00:41:53 145.865
ESTCUBE 1 17 Jan 00:40:26 00:44:33 34° 258° (WSW) 00:48:39 437.505/2401.250
QB50P2 17 Jan 00:42:13 00:46:28 74° 281° (W) 00:50:43 145.880/145.840
AO-91 17 Jan 01:00:13 01:01:54 12° 104° (ESE) 01:03:36 145.960
JUGNU 17 Jan 01:00:18 01:03:03 13° 190° (S) 01:05:48 437.505
VELOX 1 17 Jan 01:02:04 01:06:01 32° 78° (ENE) 01:09:55 145.980
SRMSAT 17 Jan 01:06:17 01:11:56 45° 201° (SSW) 01:17:36 437.500
BUGSAT 1 17 Jan 01:06:49 01:09:55 20° 102° (ESE) 01:13:00 437.445
EO-79 17 Jan 01:15:33 01:19:11 28° 282° (WNW) 01:22:50 145.935-145.965
DUCHIFAT 1 17 Jan 01:20:29 01:24:18 33° 282° (WNW) 01:28:08 145.980
O/OREOS (USA 219) 17 Jan 01:27:44 01:32:16 62° 284° (WNW) 01:36:44 437.305
DX 1 17 Jan 01:36:44 01:37:42 11° 78° (ENE) 01:38:40 434.975-435.025
SPROUT 17 Jan 01:37:17 01:41:04 32° 258° (WSW) 01:44:51 437.525
Gurwin Techsat 1B 17 Jan 01:40:17 01:44:20 23° 103° (ESE) 01:48:25 435.225
FALCONSAT 3 17 Jan 01:45:05 01:46:55 13° 144° (SE) 01:48:46 435.103
50 SAT 17 Jan 02:03:09 02:05:26 19° 78° (ENE) 02:07:41 437.505
Oscar 19 17 Jan 02:32:22 02:37:23 56° 283° (WNW) 02:42:24 437.125/150
AO-91 17 Jan 02:33:15 02:37:52 43° 281° (W) 02:42:51 145.960
VELOX 1 17 Jan 02:41:17 02:42:09 10° 257° (WSW) 02:43:01 145.980
BUGSAT 1 17 Jan 02:42:22 02:44:58 16° 282° (WNW) 02:47:35 437.445
SRMSAT 17 Jan 02:57:23 03:01:28 19° 195° (SSW) 03:05:34 437.500
UKube-1 17 Jan 03:07:54 03:12:10 63° 258° (WSW) 03:16:24 .
DX 1 17 Jan 03:09:46 03:13:36 30° 258° (WSW) 03:17:25 434.975-435.025
BEESAT 17 Jan 03:16:00 03:18:28 14° 77° (ENE) 03:20:55 436.000
Gurwin Techsat 1B 17 Jan 03:19:53 03:24:00 23° 283° (WNW) 03:28:09 435.225
FALCONSAT 3 17 Jan 03:22:20 03:25:56 53° 322° (NW) 03:29:31 435.103
ITAMSAT 1 17 Jan 03:30:10 03:33:04 15° 103° (ESE) 03:35:59 435.822/435.867
MOZHAYETS 4 17 Jan 03:47:31 03:52:07 81° 78° (ENE) 03:56:42
AO-7 17 Jan 04:05:33 04:13:54 80° 106° (ESE) 04:22:13 .
ITUPSAT 1 17 Jan 04:08:16 04:13:01 72° 78° (ENE) 04:17:45 437.325
JUGNU 17 Jan 04:40:29 04:43:21 14° 169° (S) 04:46:13 437.505
SRMSAT 17 Jan 04:50:22 04:51:33 11° 186° (S) 04:52:44 437.500
BEESAT 17 Jan 04:51:52 04:55:57 29° 257° (WSW) 05:00:01 436.000
NO-84 17 Jan 04:55:40 04:59:05 79° 61° (ENE) 05:02:49 435.350 FM
ITAMSAT 1 17 Jan 05:07:36 05:12:14 33° 283° (WNW) 05:16:53 435.822/435.867
CUBESAT XI-V 17 Jan 05:15:06 05:19:30 39° 258° (WSW) 05:23:53 437.345
M-CUBED/EXP-1 PRIME 17 Jan 05:18:47 05:22:00 84° 107° (ESE) 05:25:18 437.505
DOVE 4 17 Jan 05:27:54 05:32:29 86° 100° (E) 05:37:24 437.250
SO-50 17 Jan 05:40:11 05:44:33 55° 112° (ESE) 05:48:52 436.795
KKS-1 17 Jan 05:51:02 05:55:22 54° 78° (ENE) 05:59:40 437.445
XW-2F 17 Jan 05:53:26 05:53:53 10° 102° (ESE) 05:54:20 145.980 - 146.000
XW-2D 17 Jan 05:57:15 05:59:24 15° 101° (ESE) 06:01:33 145.860 - 145.880
AO-7 17 Jan 06:03:52 06:06:10 11° 288° (WNW) 06:08:27 .
CUTE-I 17 Jan 06:07:58 06:11:49 21° 103° (ESE) 06:15:42 437.470
XW-2B 17 Jan 06:13:40 06:16:47 25° 101° (E) 06:19:55 145.730 - 145.750
NUDT-PHONESAT 17 Jan 06:17:49 06:20:12 17° 101° (ESE) 06:22:37 437.300
STARS 17 Jan 06:20:41 06:24:47 40° 78° (ENE) 06:28:51 437.465
JUGNU 17 Jan 06:27:58 06:32:59 28° 162° (SSE) 06:37:58 437.505
LilacSat-2 17 Jan 06:34:45 06:38:28 70° 100° (E) 06:42:12 437.200
SRMSAT 17 Jan 06:40:58 06:41:55 10° 175° (S) 06:42:54 437.500
XW-2C 17 Jan 06:43:02 06:46:46 87° 108° (ESE) 06:50:30 145.795 - 145.815
HO-68 17 Jan 07:03:28 07:10:05 41° 105° (ESE) 07:16:42 435.675
SEEDS 17 Jan 07:05:42 07:08:06 15° 102° (ESE) 07:10:30 437.485
CUTE 1.7 + AOD 2 17 Jan 07:07:38 07:11:23 32° 102° (ESE) 07:15:09 437.475
RS-15 17 Jan 07:19:54 07:30:26 36° 111° (ESE) 07:41:06 29.354- 29.394
XW-2F 17 Jan 07:24:51 07:27:42 21° 281° (W) 07:30:33 145.980 - 146.000
XW-2D 17 Jan 07:31:06 07:33:17 15° 281° (WNW) 07:35:29 145.860 - 145.880
KAITUO 1B 17 Jan 07:31:13 07:34:10 23° 281° (W) 07:37:09 145.475/437.950
CUTE-I 17 Jan 07:47:14 07:51:35 26° 283° (WNW) 07:55:57 437.470
XW-2A 17 Jan 07:50:42 07:52:35 14° 101° (ESE) 07:54:27 145.665 - 145.685
NUDT-PHONESAT 17 Jan 07:52:12 07:53:46 12° 281° (W) 07:55:19 437.300
STRAND 1 17 Jan 07:57:40 08:02:42 63° 78° (ENE) 08:07:43 437.568
CUBEBUG 2 17 Jan 08:07:14 08:11:53 60° 282° (WNW) 08:16:28 437.445
Oscar 11 17 Jan 08:11:08 08:12:53 12° 102° (ESE) 08:14:36 .
JUGNU 17 Jan 08:16:15 08:22:08 76° 159° (SSE) 08:27:59 437.505
FO-29 17 Jan 08:18:08 08:25:29 46° 78° (ENE) 08:32:16 435.910
UWE-3 17 Jan 08:22:20 08:26:55 79° 283° (WNW) 08:31:27 435.000/436.395/437.385
SRMSAT 17 Jan 08:28:03 08:32:02 18° 165° (SSE) 08:36:01 437.500
ISS 17 Jan 08:33:37 08:36:53 89° 247° (WSW) 08:40:10 437.550
AAUSAT CUBESAT 2 17 Jan 08:35:13 08:39:17 73° 282° (WNW) 08:43:24 437.432
nSIGHT-1 17 Jan 08:39:14 08:42:11 34° 234° (SW) 08:45:09 .
SEEDS 17 Jan 08:40:30 08:43:29 20° 281° (WNW) 08:46:31 437.485
HO-68 17 Jan 08:52:19 08:57:28 22° 285° (WNW) 09:02:40 435.675
ZACube-1 17 Jan 08:56:32 09:00:56 60° 282° (WNW) 09:05:16 437.345
AO-73 17 Jan 09:06:16 09:10:35 51° 282° (WNW) 09:14:49 145.935
XW-2A 17 Jan 09:23:57 09:24:59 11° 281° (WNW) 09:26:01 145.665 - 145.685
UNISAT 6 17 Jan 09:29:24 09:31:24 13° 78° (ENE) 09:33:24 437.425
RS-15 17 Jan 09:31:16 09:42:26 45° 291° (WNW) 09:53:55 29.354- 29.394
BEESAT 3 17 Jan 09:37:09 09:40:35 29° 111° (ESE) 09:44:02 437.485
Oscar 11 17 Jan 09:45:09 09:48:44 26° 281° (WNW) 09:52:19 .
DELFI C3 17 Jan 09:54:58 09:58:43 45° 101° (ESE) 10:02:31 145.870
Max Valier Satellite 17 Jan 09:56:58 10:00:03 26° 101° (E) 10:03:08 145.860
FO-29 17 Jan 10:04:22 10:10:00 22° 255° (WSW) 10:15:25 435.910
JUGNU 17 Jan 10:05:45 10:11:11 39° 340° (NNW) 10:16:36 437.505
BEESAT 2 17 Jan 10:14:53 10:17:26 17° 112° (ESE) 10:19:59 435.950
SRMSAT 17 Jan 10:15:59 10:21:35 43° 160° (SSE) 10:27:12 437.500
EO-88 17 Jan 10:26:09 10:29:36 44° 101° (ESE) 10:33:04 145.990 - 145.960
PCSat 17 Jan 10:38:33 10:43:50 58° 289° (WNW) 10:49:07 145.827
YUBILEINY 17 Jan 10:48:17 10:53:50 19° 87° (E) 10:59:22 435.215
TIGRISAT 17 Jan 10:49:45 10:53:48 43° 258° (WSW) 10:57:53 435.000
PRISM 17 Jan 11:02:18 11:06:11 41° 78° (ENE) 11:10:01 437.425
UNISAT 6 17 Jan 11:04:23 11:07:50 24° 258° (WSW) 11:11:19 437.425
ESTCUBE 1 17 Jan 11:19:08 11:21:54 16° 102° (ESE) 11:24:40 437.505/2401.250
EO-79 17 Jan 11:47:33 11:49:37 13° 78° (ENE) 11:51:39 145.935-145.965
BEESAT 2 17 Jan 11:52:20 11:54:52 16° 292° (WNW) 11:57:25 435.950
DUCHIFAT 1 17 Jan 11:53:18 11:54:04 10° 78° (ENE) 11:54:51 145.980
JUGNU 17 Jan 11:56:55 12:00:35 17° 346° (NNW) 12:04:15 437.505
LO-87 17 Jan 11:59:29 12:03:05 81° 282° (WNW) 12:06:43 145.935 - 145.965
SRMSAT 17 Jan 12:04:53 12:10:49 70° 339° (NNW) 12:16:46 437.500
SPROUT 17 Jan 12:10:33 12:12:15 12° 102° (ESE) 12:13:57 437.525
AIST 2D 17 Jan 12:12:13 12:15:31 37° 259° (W) 12:18:47 435.315
POLYITAN 1 17 Jan 12:19:22 12:23:19 40° 78° (ENE) 12:27:16 437.675
AO-85 17 Jan 12:27:17 12:31:08 79° 292° (WNW) 12:34:58 145.980
NANOSAT C BR1 17 Jan 12:39:02 12:43:12 70° 79° (ENE) 12:47:21 145.865
YUBILEINY 17 Jan 12:41:53 12:50:13 52° 267° (W) 12:58:36 435.215
QB50P2 17 Jan 12:48:27 12:52:35 59° 259° (WSW) 12:56:42 145.880/145.840
ESTCUBE 1 17 Jan 12:55:00 12:58:25 22° 282° (WNW) 13:01:51 437.505/2401.250
BUGSAT 1 17 Jan 13:09:46 13:12:43 20° 78° (ENE) 13:15:42 437.445
VELOX 1 17 Jan 13:13:00 13:17:13 46° 102° (ESE) 13:21:28 145.980
EO-79 17 Jan 13:21:48 13:25:05 22° 258° (WSW) 13:28:22 145.935-145.965
DUCHIFAT 1 17 Jan 13:25:53 13:29:27 28° 258° (WSW) 13:33:00 145.980
Oscar 19 17 Jan 13:28:00 13:32:00 23° 77° (ENE) 13:36:00 437.125/150
FALCONSAT 3 17 Jan 13:28:09 13:29:43 12° 36° (NE) 13:31:19 435.103
O/OREOS (USA 219) 17 Jan 13:39:01 13:43:06 35° 255° (WSW) 13:47:13 437.305
SPROUT 17 Jan 13:44:16 13:47:51 26° 282° (WNW) 13:51:27 437.525
DX 1 17 Jan 13:44:39 13:47:06 15° 103° (ESE) 13:49:32 434.975-435.025
SRMSAT 17 Jan 13:55:13 14:00:10 27° 342° (NNW) 14:05:08 437.500
Gurwin Techsat 1B 17 Jan 14:17:35 14:22:52 65° 77° (ENE) 14:28:07 435.225
AO-7 17 Jan 14:43:33 14:47:56 15° 73° (ENE) 14:52:17 .
BUGSAT 1 17 Jan 14:45:51 14:47:48 13° 258° (WSW) 14:49:46 437.445
AO-91 17 Jan 14:47:11 14:50:02 20° 256° (WSW) 14:52:44 145.960
FALCONSAT 3 17 Jan 15:05:08 15:08:44 58° 217° (SW) 15:12:21 435.103
Oscar 19 17 Jan 15:07:07 15:11:02 22° 257° (WSW) 15:14:57 437.125/150
50 SAT 17 Jan 15:09:32 15:11:49 19° 282° (WNW) 15:14:07 437.505
UKube-1 17 Jan 15:16:11 15:20:18 47° 282° (WNW) 15:24:28 .
DX 1 17 Jan 15:19:35 15:22:59 23° 282° (WNW) 15:26:25 434.975-435.025
BEESAT 17 Jan 15:36:09 15:40:10 27° 103° (ESE) 15:44:11 436.000
JUGNU 17 Jan 15:39:22 15:40:45 11° 7° (N) 15:42:07 437.505
SRMSAT 17 Jan 15:47:17 15:50:01 13° 350° (N) 15:52:46 437.500
